TimeEST,TemperatureF,Dew PointF,Humidity,Sea Level PressureIn,VisibilityMPH,Wind Direction,Wind SpeedMPH,Gust SpeedMPH,PrecipitationIn,Events,Conditions,WindDirDegrees,DateUTC
12:05 AM,15.8,12.2,86,30.37,1.2,Calm,Calm,-,N/A,,Clear,0,2013-02-09 05:05:00
12:09 AM,15.8,10.4,79,30.37,0.5,Calm,Calm,-,N/A,,Haze,0,2013-02-09 05:09:00
12:18 AM,15.8,10.4,79,30.38,0.2,Calm,Calm,-,N/A,Fog,Light Freezing Fog,0,2013-02-09 05:18:00
12:50 AM,12.2,8.6,85,30.38,1.0,Calm,Calm,-,N/A,,Haze,0,2013-02-09 05:50:00
12:53 AM,12.0,6.1,77,30.42,2.5,Calm,Calm,-,N/A,,Haze,0,2013-02-09 05:53:00
1:00 AM,10.4,6.8,85,30.38,7.0,Calm,Calm,-,N/A,,Partly Cloudy,0,2013-02-09 06:00:00
1:12 AM,10.4,5.0,79,30.38,2.0,Calm,Calm,-,N/A,,Haze,0,2013-02-09 06:12:00
1:15 AM,12.2,6.8,79,30.38,1.2,Calm,Calm,-,N/A,,Haze,0,2013-02-09 06:15:00
1:17 AM,12.2,6.8,79,30.38,0.8,Calm,Calm,-,N/A,,Haze,0,2013-02-09 06:17:00
1:26 AM,12.2,6.8,79,30.38,0.2,Calm,Calm,-,N/A,,Haze,0,2013-02-09 06:26:00
1:53 AM,10.9,5.0,77,30.41,0.5,Calm,Calm,-,N/A,,Haze,0,2013-02-09 06:53:00
2:53 AM,7.0,1.9,80,30.42,0.2,Calm,Calm,-,N/A,,Haze,0,2013-02-09 07:53:00
3:01 AM,8.6,3.2,79,30.38,1.0,Calm,Calm,-,N/A,,Haze,0,2013-02-09 08:01:00
3:10 AM,8.6,1.4,73,30.39,2.0,Calm,Calm,-,N/A,,Haze,0,2013-02-09 08:10:00
3:20 AM,8.6,1.4,73,30.39,7.0,Calm,Calm,-,N/A,,Mostly Cloudy,0,2013-02-09 08:20:00
3:32 AM,8.6,1.4,73,30.39,7.0,Calm,Calm,-,N/A,,Scattered Clouds,0,2013-02-09 08:32:00
3:51 AM,8.6,1.4,73,30.38,1.8,Calm,Calm,-,N/A,,Haze,0,2013-02-09 08:51:00
3:53 AM,8.1,1.9,76,30.42,1.8,Calm,Calm,-,N/A,,Haze,0,2013-02-09 08:53:00
4:00 AM,6.8,1.4,79,30.39,3.0,Calm,Calm,-,N/A,,Haze,0,2013-02-09 09:00:00
4:05 AM,6.8,-0.4,72,30.39,1.5,Calm,Calm,-,N/A,,Haze,0,2013-02-09 09:05:00
4:07 AM,6.8,-0.4,72,30.39,1.0,Calm,Calm,-,N/A,,Haze,0,2013-02-09 09:07:00
4:14 AM,6.8,1.4,79,30.39,0.8,Calm,Calm,-,N/A,,Haze,0,2013-02-09 09:14:00
4:22 AM,6.8,1.4,79,30.39,0.2,Calm,Calm,-,N/A,,Haze,0,2013-02-09 09:22:00
4:38 AM,6.8,-0.4,72,30.40,1.0,Calm,Calm,-,N/A,,Haze,0,2013-02-09 09:38:00
4:40 AM,6.8,-0.4,72,30.40,2.5,Calm,Calm,-,N/A,,Haze,0,2013-02-09 09:40:00
4:45 AM,6.8,-0.4,72,30.40,7.0,Calm,Calm,-,N/A,,Scattered Clouds,0,2013-02-09 09:45:00
4:53 AM,6.1,-0.9,73,30.44,5.0,Calm,Calm,-,N/A,,Haze,0,2013-02-09 09:53:00
5:22 AM,5.0,-0.4,78,30.40,7.0,Calm,Calm,-,N/A,,Mostly Cloudy,0,2013-02-09 10:22:00
5:32 AM,3.2,-2.2,78,30.39,2.5,East,4.6,-,N/A,,Haze,100,2013-02-09 10:32:00
5:40 AM,1.4,-4.0,78,30.38,3.0,East,4.6,-,N/A,,Haze,90,2013-02-09 10:40:00
5:42 AM,1.4,-4.0,78,30.39,1.2,East,5.8,-,N/A,,Haze,90,2013-02-09 10:42:00
5:45 AM,3.2,-2.2,78,30.39,0.5,East,5.8,-,N/A,,Haze,100,2013-02-09 10:45:00
5:53 AM,1.9,-2.0,83,30.43,1.0,East,4.6,-,N/A,,Mist,100,2013-02-09 10:53:00
5:55 AM,1.4,-2.2,85,30.39,2.0,ESE,3.5,-,N/A,,Overcast,110,2013-02-09 10:55:00
6:05 AM,3.2,-0.4,85,30.39,3.0,East,3.5,-,N/A,,Haze,100,2013-02-09 11:05:00
6:36 AM,1.4,-4.0,78,30.38,4.0,East,4.6,-,N/A,,Haze,100,2013-02-09 11:36:00
6:44 AM,1.4,-4.0,78,30.38,4.0,East,5.8,-,N/A,,Haze,90,2013-02-09 11:44:00
6:53 AM,1.9,-2.9,80,30.43,4.0,ESE,3.5,-,N/A,,Haze,110,2013-02-09 11:53:00
7:16 AM,1.4,-5.8,72,30.40,7.0,Calm,Calm,-,N/A,,Scattered Clouds,0,2013-02-09 12:16:00
7:53 AM,1.9,-5.1,72,30.44,6.0,East,5.8,-,N/A,,Haze,100,2013-02-09 12:53:00
8:46 AM,6.8,1.4,79,30.41,2.0,SE,3.5,-,N/A,,Clear,130,2013-02-09 13:46:00
8:53 AM,7.0,3.0,84,30.45,3.0,ESE,3.5,-,N/A,,Clear,120,2013-02-09 13:53:00
9:53 AM,14.0,10.9,88,30.44,7.0,SE,4.6,-,N/A,,Clear,140,2013-02-09 14:53:00
10:53 AM,19.9,14.0,78,30.43,10.0,SSE,8.1,-,N/A,,Clear,150,2013-02-09 15:53:00
11:53 AM,24.1,17.1,75,30.42,10.0,ESE,5.8,-,N/A,,Clear,120,2013-02-09 16:53:00
12:53 PM,30.0,18.0,61,30.39,10.0,SSE,6.9,-,N/A,,Clear,160,2013-02-09 17:53:00
1:53 PM,32.0,19.9,61,30.35,10.0,SSE,9.2,-,N/A,,Clear,160,2013-02-09 18:53:00
2:53 PM,33.1,19.9,59,30.32,10.0,SSE,8.1,-,N/A,,Clear,160,2013-02-09 19:53:00
3:53 PM,32.0,19.9,61,30.32,10.0,SSE,8.1,-,N/A,,Clear,160,2013-02-09 20:53:00
4:53 PM,32.0,19.0,59,30.30,10.0,SSE,6.9,-,N/A,,Clear,150,2013-02-09 21:53:00
5:53 PM,30.9,18.0,59,30.28,10.0,SSE,9.2,-,N/A,,Clear,150,2013-02-09 22:53:00
6:53 PM,25.0,15.1,66,30.27,10.0,ESE,5.8,-,N/A,,Clear,110,2013-02-09 23:53:00
7:53 PM,25.0,16.0,69,30.27,10.0,SE,5.8,-,N/A,,Clear,130,2013-02-10 00:53:00
8:53 PM,21.9,15.1,75,30.26,10.0,ESE,5.8,-,N/A,,Clear,110,2013-02-10 01:53:00
9:53 PM,23.0,16.0,74,30.24,10.0,ESE,5.8,-,N/A,,Clear,110,2013-02-10 02:53:00
10:53 PM,24.1,16.0,71,30.23,10.0,ESE,5.8,-,N/A,,Clear,110,2013-02-10 03:53:00
11:53 PM,21.9,15.1,75,30.20,10.0,East,5.8,-,N/A,,Clear,90,2013-02-10 04:53:00